When you browse on this site, cookies collect data to enhance your experience and personalize the content and advertising you see.
Visit our Privacy Policy to learn more. By continuing to use the site, you agree to this use of cookies and data.
  • In Hungary
  • List of Countries
  • For 7 days
  • Water Temperature
  • Weather Map
  • News
  • Weather Widgets
  • user-avatar
    Login

    Hourly Weather Zbojna

    Today, 21 August, Wednesday

    Time Temperature Precipitation Wind Pressure Humidity
    00:00 +20°C° 0 mm 4 mps 756 mmHg 69%
    01:00 +20°C° 0 mm 3 mps 756 mmHg 72%
    02:00 +19°C° 2.5 mm 4 mps 756 mmHg 80%
    03:00 +18°C° 2.5 mm 4 mps 755 mmHg 87%
    04:00 +16°C° 2.5 mm 5 mps 755 mmHg 95%
    05:00 +16°C° 4.2 mm 6 mps 755 mmHg 94%
    06:00 +15°C° 4.2 mm 7 mps 755 mmHg 93%
    07:00 +13°C° 4.2 mm 8 mps 755 mmHg 92%
    08:00 +14°C° 0.1 mm 7 mps 755 mmHg 90%
    09:00 +14°C° 0.1 mm 7 mps 756 mmHg 88%
    10:00 +14°C° 0.1 mm 6 mps 756 mmHg 87%
    11:00 +14°C° 0 mm 6 mps 757 mmHg 86%
    12:00 +15°C° 0 mm 5 mps 758 mmHg 85%
    13:00 +15°C° 0 mm 5 mps 758 mmHg 85%
    14:00 +16°C° 0 mm 5 mps 758 mmHg 80%
    15:00 +17°C° 0 mm 5 mps 759 mmHg 76%
    16:00 +17°C° 0 mm 5 mps 759 mmHg 72%
    17:00 +17°C° 0 mm 3 mps 759 mmHg 75%
    18:00 +16°C° 0 mm 2 mps 759 mmHg 79%
    19:00 +15°C° 0 mm 1 mps 760 mmHg 83%
    20:00 +14°C° 0 mm 1 mps 760 mmHg 85%
    21:00 +14°C° 0 mm 1 mps 760 mmHg 87%
    22:00 +12°C° 0 mm 0 mps 760 mmHg 89%
    23:00 +13°C° 0 mm 1 mps 761 mmHg 90%

    Tomorrow, 22 August, Thursday

    Time Temperature Precipitation Wind Pressure Humidity
    00:00 +13°C° 0 mm 1 mps 761 mmHg 91%
    01:00 +13°C° 0 mm 1 mps 761 mmHg 92%
    02:00 +13°C° 0 mm 1 mps 761 mmHg 92%
    03:00 +12°C° 0 mm 1 mps 761 mmHg 93%
    04:00 +12°C° 0 mm 1 mps 761 mmHg 94%
    05:00 +14°C° 0 mm 1 mps 761 mmHg 89%
    06:00 +15°C° 0 mm 1 mps 761 mmHg 84%
    07:00 +16°C° 0 mm 1 mps 762 mmHg 79%
    08:00 +19°C° 0 mm 1 mps 762 mmHg 71%
    09:00 +21°C° 0 mm 1 mps 762 mmHg 63%
    10:00 +22°C° 0 mm 1 mps 762 mmHg 55%
    11:00 +23°C° 0 mm 1 mps 762 mmHg 53%
    12:00 +23°C° 0 mm 1 mps 762 mmHg 50%
    13:00 +24°C° 0 mm 1 mps 762 mmHg 47%
    14:00 +24°C° 0 mm 1 mps 761 mmHg 48%
    15:00 +24°C° 0 mm 1 mps 761 mmHg 48%
    16:00 +24°C° 0 mm 1 mps 761 mmHg 48%
    17:00 +20°C° 0 mm 0 mps 761 mmHg 54%
    18:00 +18°C° 0 mm 0 mps 761 mmHg 59%
    19:00 +16°C° 0 mm 0 mps 761 mmHg 65%
    20:00 +18°C° 0 mm 1 mps 761 mmHg 68%
    21:00 +16°C° 0 mm 1 mps 761 mmHg 70%
    22:00 +15°C° 0 mm 1 mps 762 mmHg 73%
    23:00 +15°C° 0 mm 1 mps 762 mmHg 74%

    Day after tomorrow, 23 August, Friday

    Time Temperature Precipitation Wind Pressure Humidity
    00:00 +14°C° 0 mm 1 mps 762 mmHg 76%
    01:00 +14°C° 0 mm 1 mps 762 mmHg 77%
    02:00 +14°C° 0 mm 1 mps 762 mmHg 79%
    03:00 +13°C° 0 mm 1 mps 761 mmHg 80%
    04:00 +13°C° 0 mm 1 mps 761 mmHg 81%
    05:00 +14°C° 0 mm 1 mps 761 mmHg 77%
    06:00 +16°C° 0 mm 1 mps 762 mmHg 72%
    07:00 +19°C° 0 mm 1 mps 762 mmHg 68%
    08:00 +20°C° 0 mm 1 mps 762 mmHg 63%
    09:00 +22°C° 0 mm 1 mps 762 mmHg 58%
    10:00 +23°C° 0 mm 1 mps 762 mmHg 53%
    11:00 +24°C° 0 mm 1 mps 762 mmHg 51%
    12:00 +24°C° 0 mm 1 mps 761 mmHg 48%
    13:00 +25°C° 0 mm 1 mps 761 mmHg 45%
    14:00 +25°C° 0 mm 1 mps 761 mmHg 46%
    15:00 +25°C° 0 mm 1 mps 761 mmHg 46%
    16:00 +25°C° 0 mm 1 mps 760 mmHg 47%
    17:00 +23°C° 0 mm 1 mps 760 mmHg 53%
    18:00 +21°C° 0 mm 1 mps 760 mmHg 58%
    19:00 +19°C° 0 mm 1 mps 760 mmHg 64%
    20:00 +18°C° 0 mm 1 mps 760 mmHg 66%
    21:00 +17°C° 0 mm 2 mps 760 mmHg 68%
    22:00 +16°C° 0 mm 2 mps 760 mmHg 71%
    23:00 +15°C° 0 mm 2 mps 760 mmHg 73%

    24 August, Saturday

    Time Temperature Precipitation Wind Pressure Humidity
    00:00 +15°C° 0 mm 2 mps 760 mmHg 76%
    01:00 +14°C° 0 mm 1 mps 760 mmHg 78%
    02:00 +14°C° 0 mm 1 mps 760 mmHg 79%
    03:00 +14°C° 0 mm 1 mps 760 mmHg 81%
    04:00 +14°C° 0 mm 1 mps 760 mmHg 82%
    05:00 +15°C° 0 mm 1 mps 760 mmHg 79%
    06:00 +16°C° 0 mm 1 mps 760 mmHg 75%
    07:00 +19°C° 0 mm 1 mps 760 mmHg 71%
    08:00 +19°C° 0 mm 2 mps 760 mmHg 66%
    09:00 +21°C° 0 mm 2 mps 760 mmHg 61%
    10:00 +24°C° 0 mm 2 mps 760 mmHg 55%
    11:00 +24°C° 0 mm 2 mps 759 mmHg 52%
    12:00 +25°C° 0 mm 2 mps 759 mmHg 49%
    13:00 +26°C° 0 mm 3 mps 759 mmHg 45%
    14:00 +26°C° 0 mm 2 mps 758 mmHg 46%
    15:00 +25°C° 0 mm 2 mps 758 mmHg 46%
    16:00 +25°C° 0 mm 2 mps 758 mmHg 47%
    17:00 +23°C° 0 mm 2 mps 758 mmHg 52%
    18:00 +21°C° 0 mm 1 mps 758 mmHg 57%
    19:00 +19°C° 0 mm 1 mps 758 mmHg 62%
    20:00 +19°C° 0 mm 1 mps 758 mmHg 64%
    21:00 +17°C° 0 mm 2 mps 758 mmHg 66%
    22:00 +16°C° 0 mm 2 mps 758 mmHg 68%
    23:00 +16°C° 0 mm 2 mps 758 mmHg 71%

    25 August, Sunday

    Time Temperature Precipitation Wind Pressure Humidity
    00:00 +15°C° 0 mm 1 mps 758 mmHg 73%
    01:00 +15°C° 0 mm 1 mps 758 mmHg 76%
    02:00 +14°C° 0 mm 2 mps 758 mmHg 77%
    03:00 +14°C° 0 mm 2 mps 758 mmHg 78%
    04:00 +14°C° 0 mm 2 mps 758 mmHg 79%
    05:00 +15°C° 0 mm 2 mps 758 mmHg 77%
    06:00 +16°C° 0 mm 2 mps 758 mmHg 74%
    07:00 +18°C° 0 mm 3 mps 758 mmHg 72%
    08:00 +19°C° 0 mm 3 mps 758 mmHg 66%
    09:00 +21°C° 0 mm 4 mps 758 mmHg 61%
    10:00 +23°C° 0 mm 4 mps 758 mmHg 55%
    11:00 +25°C° 0 mm 4 mps 758 mmHg 53%
    12:00 +25°C° 0 mm 4 mps 758 mmHg 51%
    13:00 +26°C° 0 mm 4 mps 758 mmHg 48%
    14:00 +26°C° 0 mm 4 mps 758 mmHg 49%
    15:00 +26°C° 0 mm 3 mps 757 mmHg 50%
    16:00 +26°C° 0 mm 3 mps 757 mmHg 51%
    17:00 +24°C° 0 mm 3 mps 757 mmHg 58%
    18:00 +21°C° 0 mm 3 mps 757 mmHg 64%
    19:00 +19°C° 0 mm 3 mps 757 mmHg 71%
    20:00 +18°C° 0 mm 3 mps 757 mmHg 72%
    21:00 +17°C° 0 mm 3 mps 757 mmHg 73%
    22:00 +17°C° 0 mm 3 mps 758 mmHg 74%
    23:00 +16°C° 0 mm 3 mps 757 mmHg 76%

    26 August, Monday

    Time Temperature Precipitation Wind Pressure Humidity
    00:00 +16°C° 0 mm 3 mps 757 mmHg 78%
    01:00 +14°C° 0 mm 3 mps 757 mmHg 80%
    02:00 +14°C° 0 mm 3 mps 757 mmHg 79%
    03:00 +14°C° 0 mm 3 mps 757 mmHg 79%
    04:00 +14°C° 0 mm 3 mps 756 mmHg 78%
    05:00 +16°C° 0 mm 3 mps 756 mmHg 76%
    06:00 +17°C° 0 mm 4 mps 756 mmHg 74%
    07:00 +18°C° 0 mm 4 mps 756 mmHg 72%
    08:00 +20°C° 0 mm 4 mps 756 mmHg 68%
    09:00 +22°C° 0 mm 5 mps 756 mmHg 64%
    10:00 +25°C° 0 mm 5 mps 756 mmHg 60%
    11:00 +26°C° 0 mm 5 mps 755 mmHg 57%
    12:00 +27°C° 0 mm 5 mps 755 mmHg 55%
    13:00 +28°C° 0 mm 5 mps 755 mmHg 52%
    14:00 +28°C° 0 mm 5 mps 754 mmHg 53%
    15:00 +28°C° 0 mm 5 mps 754 mmHg 55%
    16:00 +28°C° 0 mm 4 mps 754 mmHg 56%
    17:00 +26°C° 0 mm 4 mps 753 mmHg 62%
    18:00 +23°C° 0 mm 4 mps 753 mmHg 68%
    19:00 +21°C° 0 mm 3 mps 753 mmHg 74%
    20:00 +21°C° 0 mm 4 mps 753 mmHg 75%
    21:00 +20°C° 0 mm 4 mps 753 mmHg 76%
    22:00 +20°C° 0 mm 4 mps 752 mmHg 77%
    23:00 +19°C° 0 mm 3 mps 752 mmHg 80%
    Show more